Change the Weather History Date:

Tuesday, April 8, 2014

  Actual Average Record
Temperature  
Mean Temperature 49 °F 49 °F  
Max Temperature 62 °F 62 °F 88 °F (1931)
Min Temperature 35 °F 36 °F 17 °F (2007)
Degree Days  
Heating Degree Days 16 16  
Month to date heating degree days 166 141  
Since 1 July heating degree days 6140 5617  
Cooling Degree Days 0 0  
Month to date cooling degree days 0 0  
Year to date cooling degree days 0 1  
Moisture  
Dew Point 25 °F    
Average Humidity 46    
Maximum Humidity 75    
Minimum Humidity 17    
Precipitation  
Precipitation 0.00 in 0.07 in 0.85 in (1922)
Month to date precipitation 0.34 0.58  
Year to date precipitation 1.33 3.92  
Snow  
Snow 0.00 in 0.00 in - ()
Month to date snowfall T 0.6  
Since 1 July snowfall 17.7 25.1  
Snow Depth 0.00 in    
Sea Level Pressure  
Sea Level Pressure 30.07 in    
Wind  
Wind Speed 10 mph (NNW)    
Max Wind Speed 25 mph    
Max Gust Speed 31 mph    
Visibility 10 miles    
Events      
T = Trace of Precipitation, MM = Missing Value Source: NWS Daily Summary

Daily Weather History Graph

Daily Weather History Graph

Search for Another Location

Airport or City:

Trip Planner

Search our weather history database for the weather conditions in past years. The results will help you decide how hot, cold, wet, or windy it might be!

Date:

Astronomy

Apr. 08, 2014 Rise Set
Actual Time 6:59 AM CDT 7:59 PM CDT
Civil Twilight 6:31 AM CDT 8:27 PM CDT
Nautical Twilight 5:57 AM CDT 9:00 PM CDT
Astronomical Twilight 5:23 AM CDT 9:35 PM CDT
Moon 1:51 PM CDT (4/8) 3:15 AM CDT (4/8)
Length of Visible Light 13h 56m
Length of Day
13h 00m
Waxing Gibbous, 63% of the Moon is Illuminated
Apr 8
Waxing Gibbous
Apr 15
Full
Apr 22
Last Quarter
Apr 29
New
May 6
First Quarter

Hourly Weather History & Observations

Time (CDT) Temp. Windchill Dew Point Humidity Pressure Visibility Wind Dir Wind Speed Gust Speed Precip Events Conditions
12:54 AM 48.0 °F - 32.0 °F 54% 29.98 in 10.0 mi NNW 12.7 mph - N/A   Clear
1:54 AM 46.9 °F - 32.0 °F 56% 29.99 in 10.0 mi NW 9.2 mph - N/A   Overcast
2:54 AM 46.9 °F - 32.0 °F 56% 29.97 in 10.0 mi NW 9.2 mph - N/A   Overcast
3:54 AM 43.0 °F 37.7 °F 30.9 °F 62% 29.98 in 10.0 mi NNW 9.2 mph - N/A   Clear
4:54 AM 41.0 °F 35.2 °F 30.9 °F 67% 29.99 in 10.0 mi NW 9.2 mph - N/A   Clear
5:54 AM 36.0 °F 32.1 °F 28.9 °F 76% 30.02 in 10.0 mi NNE 4.6 mph - N/A   Clear
6:54 AM 41.0 °F 33.9 °F 30.9 °F 67% 30.04 in 10.0 mi NNW 12.7 mph - N/A   Clear
7:54 AM 41.0 °F 33.9 °F 30.9 °F 67% 30.07 in 10.0 mi NNW 12.7 mph - N/A   Clear
8:54 AM 45.0 °F 38.9 °F 32.0 °F 60% 30.09 in 10.0 mi NNW 12.7 mph - N/A   Clear
9:54 AM 48.9 °F - 33.1 °F 54% 30.09 in 10.0 mi North 18.4 mph - N/A   Clear
10:54 AM 53.1 °F - 33.1 °F 47% 30.11 in 10.0 mi North 17.3 mph - N/A   Partly Cloudy
11:54 AM 55.0 °F - 30.0 °F 38% 30.11 in 10.0 mi North 16.1 mph 26.5 mph N/A   Partly Cloudy
12:54 PM 57.0 °F - 26.1 °F 30% 30.12 in 10.0 mi North 20.7 mph - N/A   Clear
1:54 PM 57.0 °F - 23.0 °F 27% 30.11 in 10.0 mi NNW 17.3 mph 24.2 mph N/A   Clear
2:54 PM 60.1 °F - 19.0 °F 20% 30.10 in 10.0 mi North 15.0 mph 25.3 mph N/A   Clear
3:54 PM 61.0 °F - 19.0 °F 20% 30.09 in 10.0 mi North 13.8 mph 21.9 mph N/A   Clear
4:54 PM 62.1 °F - 17.1 °F 18% 30.07 in 10.0 mi North 16.1 mph 24.2 mph N/A   Clear
5:54 PM 61.0 °F - 16.0 °F 17% 30.08 in 10.0 mi NNW 17.3 mph - N/A   Clear
6:54 PM 59.0 °F - 16.0 °F 19% 30.09 in 10.0 mi NNW 11.5 mph - N/A   Clear
7:54 PM 53.1 °F - 18.0 °F 25% 30.10 in 10.0 mi North 5.8 mph - N/A   Clear
8:54 PM 48.0 °F - 16.0 °F 28% 30.11 in 10.0 mi Calm Calm - N/A   Clear
9:54 PM 46.0 °F - 19.9 °F 35% 30.11 in 10.0 mi Calm Calm - N/A   Clear
10:54 PM 42.1 °F - 19.0 °F 40% 30.10 in 10.0 mi Calm Calm - N/A   Clear
11:54 PM 39.9 °F - 21.0 °F 47% 30.09 in 10.0 mi Calm Calm - N/A   Clear